SRR557 ENZV-EGSS

Flight info

Callsign SRR557
Flight time 1h 22m
Altitude 34000
Route RUMOG DCT ATNAK DCT TIPAN DCT WECOW DCT BINBO DCT AKOKO N866 KUBAX Z150 MEGEL
Aircraft B77L/H-SDE1E2E3FGHIJ2J3J4J5M1RWXY/LB1D1

Departure

Time 2026-04-24 07:31
Airport Stavanger Airport, Sola (ENZV)

Arrival

Time 2026-04-24 08:54
Airport London Stansted Airport (EGSS)
Time Latitude Longitude Altitude Speed Heading
2026-04-24 07:07 58.88494 5.63238 32 ft 0 kts 61°
2026-04-24 07:21 58.88492 5.63226 32 ft 4 kts 46°
2026-04-24 07:21 58.88476 5.63193 29 ft 2 kts 34°
2026-04-24 07:21 58.88458 5.63177 28 ft 4 kts 14°
2026-04-24 07:21 58.88434 5.63165 29 ft 4 kts 342°
2026-04-24 07:22 58.88419 5.63194 28 ft 4 kts 288°
2026-04-24 07:22 58.88414 5.63232 31 ft 1 kts 283°
2026-04-24 07:22 58.88413 5.63239 31 ft 1 kts 283°
2026-04-24 07:24 58.88412 5.63226 33 ft 2 kts 258°
2026-04-24 07:24 58.88398 5.63211 33 ft 3 kts 194°
2026-04-24 07:25 58.88375 5.63222 33 ft 4 kts 165°
2026-04-24 07:25 58.88345 5.63238 33 ft 4 kts 165°
2026-04-24 07:25 58.88315 5.63255 34 ft 5 kts 161°
2026-04-24 07:25 58.88279 5.63341 36 ft 11 kts 101°
2026-04-24 07:26 58.88226 5.63430 35 ft 12 kts 175°
2026-04-24 07:26 58.88135 5.63432 35 ft 13 kts 178°
2026-04-24 07:26 58.88043 5.63436 35 ft 13 kts 183°
2026-04-24 07:26 58.87957 5.63379 36 ft 13 kts 202°
2026-04-24 07:27 58.87870 5.63310 36 ft 15 kts 202°
2026-04-24 07:27 58.87766 5.63291 36 ft 15 kts 179°
2026-04-24 07:27 58.87661 5.63295 35 ft 15 kts 179°
2026-04-24 07:27 58.87554 5.63297 35 ft 15 kts 180°
2026-04-24 07:28 58.87446 5.63299 35 ft 15 kts 179°
2026-04-24 07:28 58.87338 5.63303 36 ft 15 kts 179°
2026-04-24 07:28 58.87231 5.63307 36 ft 15 kts 179°
2026-04-24 07:28 58.87123 5.63310 37 ft 15 kts 179°
2026-04-24 07:29 58.87020 5.63351 35 ft 16 kts 147°
2026-04-24 07:29 58.86950 5.63502 38 ft 16 kts 101°
2026-04-24 07:29 58.86953 5.63711 41 ft 15 kts 88°
2026-04-24 07:29 58.86973 5.63810 41 ft 7 kts 14°
2026-04-24 07:30 58.87013 5.63803 40 ft 0 kts 360°
2026-04-24 07:30 58.87015 5.63803 40 ft 0 kts 360°
2026-04-24 07:30 58.87019 5.63803 40 ft 0 kts 360°
2026-04-24 07:30 58.87055 5.63802 40 ft 23 kts 359°
2026-04-24 07:31 58.87476 5.63784 38 ft 95 kts 358°
2026-04-24 07:31 58.88340 5.63763 43 ft 149 kts 359°
2026-04-24 07:31 58.89400 5.63749 563 ft 149 kts 358°
2026-04-24 07:31 58.90438 5.63680 1270 ft 150 kts 356°
2026-04-24 07:32 58.91573 5.63594 1501 ft 178 kts 356°
2026-04-24 07:32 58.92875 5.63418 1902 ft 193 kts 355°
2026-04-24 07:32 58.94237 5.63228 2531 ft 199 kts 354°
2026-04-24 07:32 58.95622 5.62345 2796 ft 227 kts 326°
2026-04-24 07:33 58.96612 5.59881 3435 ft 243 kts 295°
2026-04-24 07:33 58.96848 5.56569 4199 ft 256 kts 273°
2026-04-24 07:33 58.96440 5.53128 4928 ft 272 kts 248°
2026-04-24 07:33 58.95214 5.50273 5798 ft 284 kts 221°
2026-04-24 07:34 58.93394 5.48654 6606 ft 296 kts 195°
2026-04-24 07:34 58.91318 5.48284 7307 ft 303 kts 184°
2026-04-24 07:34 58.89202 5.48344 8078 ft 305 kts 181°
2026-04-24 07:34 58.87072 5.48510 8868 ft 308 kts 181°
2026-04-24 07:35 58.84926 5.48698 9655 ft 309 kts 181°
2026-04-24 07:35 58.82765 5.48881 10393 ft 312 kts 181°
2026-04-24 07:35 58.80556 5.49051 10837 ft 328 kts 182°
2026-04-24 07:35 58.78190 5.49211 11019 ft 352 kts 182°
2026-04-24 07:36 58.75653 5.49372 11215 ft 377 kts 182°
2026-04-24 07:36 58.72963 5.49539 11602 ft 394 kts 182°
2026-04-24 07:36 58.70183 5.49713 12267 ft 404 kts 182°
2026-04-24 07:36 58.67356 5.49890 13162 ft 409 kts 182°
2026-04-24 07:37 58.64497 5.50066 14067 ft 414 kts 183°
2026-04-24 07:37 58.61604 5.50240 14866 ft 418 kts 183°
2026-04-24 07:37 58.58681 5.50414 15688 ft 421 kts 182°
2026-04-24 07:37 58.55737 5.50587 16502 ft 425 kts 182°
2026-04-24 07:38 58.52768 5.50761 17294 ft 429 kts 182°
2026-04-24 07:38 58.49771 5.50935 18080 ft 433 kts 182°
2026-04-24 07:38 58.46745 5.51111 18808 ft 437 kts 182°
2026-04-24 07:38 58.43691 5.51288 19477 ft 441 kts 183°
2026-04-24 07:39 58.40606 5.51467 20141 ft 445 kts 183°
2026-04-24 07:39 58.37497 5.51647 20795 ft 449 kts 183°
2026-04-24 07:39 58.34361 5.51828 21417 ft 453 kts 182°
2026-04-24 07:39 58.31194 5.52011 22061 ft 457 kts 182°
2026-04-24 07:40 58.28046 5.52193 22676 ft 461 kts 182°
2026-04-24 07:40 58.24823 5.52376 23298 ft 465 kts 183°
2026-04-24 07:40 58.21582 5.52249 23885 ft 466 kts 189°
2026-04-24 07:40 58.18367 5.51511 24394 ft 466 kts 195°
2026-04-24 07:41 58.15214 5.50157 24927 ft 465 kts 199°
2026-04-24 07:41 58.12058 5.48677 25456 ft 469 kts 199°
2026-04-24 07:41 58.08878 5.47207 25963 ft 472 kts 199°
2026-04-24 07:41 58.05673 5.45745 26454 ft 475 kts 198°
2026-04-24 07:42 58.02447 5.44293 26967 ft 478 kts 198°
2026-04-24 07:42 57.99199 5.42844 27470 ft 481 kts 198°
2026-04-24 07:42 57.95928 5.41392 27961 ft 484 kts 197°
2026-04-24 07:42 57.92634 5.39935 28439 ft 487 kts 197°
2026-04-24 07:43 57.89323 5.38473 28909 ft 490 kts 197°
2026-04-24 07:43 57.85992 5.37005 29348 ft 493 kts 197°
2026-04-24 07:43 57.82642 5.35530 29768 ft 496 kts 198°
2026-04-24 07:43 57.79279 5.34054 30309 ft 495 kts 197°
2026-04-24 07:44 57.75938 5.32593 30925 ft 491 kts 198°
2026-04-24 07:44 57.72618 5.31142 31427 ft 489 kts 198°
2026-04-24 07:44 57.69304 5.29694 31885 ft 489 kts 197°
2026-04-24 07:44 57.65990 5.28247 32318 ft 489 kts 197°
2026-04-24 07:45 57.62684 5.26807 32762 ft 488 kts 197°
2026-04-24 07:45 57.59381 5.25371 33235 ft 486 kts 197°
2026-04-24 07:45 57.56088 5.23942 33682 ft 485 kts 197°
2026-04-24 07:45 57.52805 5.22520 34086 ft 484 kts 197°
2026-04-24 07:46 57.49524 5.21100 34303 ft 486 kts 197°
2026-04-24 07:46 57.46230 5.19677 34259 ft 485 kts 197°
2026-04-24 07:46 57.39681 5.16862 34262 ft 482 kts 197°
2026-04-24 07:47 57.33158 5.14065 34269 ft 481 kts 197°
2026-04-24 07:47 57.26637 5.11277 34260 ft 481 kts 196°
2026-04-24 07:48 57.20168 5.08524 34280 ft 480 kts 197°
2026-04-24 07:48 57.13657 5.05763 34282 ft 480 kts 196°
2026-04-24 07:49 57.07146 5.03010 34280 ft 480 kts 197°
2026-04-24 07:49 57.00636 5.00273 34266 ft 480 kts 196°
2026-04-24 07:50 56.94039 4.98324 34282 ft 480 kts 191°
2026-04-24 07:50 56.87429 4.96633 34284 ft 479 kts 192°
2026-04-24 07:51 56.80839 4.94927 34290 ft 478 kts 192°
2026-04-24 07:51 56.74266 4.93204 34275 ft 477 kts 192°
2026-04-24 07:52 56.67713 4.91485 34286 ft 475 kts 192°
2026-04-24 07:52 56.61179 4.89775 34294 ft 473 kts 192°
2026-04-24 07:53 56.54664 4.88077 34295 ft 473 kts 192°
2026-04-24 07:53 56.48157 4.86388 34298 ft 472 kts 192°
2026-04-24 07:54 56.41664 4.84708 34298 ft 471 kts 192°
2026-04-24 07:54 56.35175 4.83036 34295 ft 471 kts 192°
2026-04-24 07:55 56.28697 4.81372 34312 ft 470 kts 192°
2026-04-24 07:55 56.22216 4.79713 34313 ft 470 kts 192°
2026-04-24 07:56 56.15740 4.78061 34305 ft 470 kts 192°
2026-04-24 07:56 56.09315 4.76428 34315 ft 469 kts 192°
2026-04-24 07:57 56.02852 4.74790 34313 ft 469 kts 192°
2026-04-24 07:57 55.96394 4.73159 34316 ft 469 kts 192°
2026-04-24 07:58 55.89931 4.71532 34321 ft 469 kts 192°
2026-04-24 07:58 55.84522 4.70175 34313 ft 469 kts 192°
2026-04-24 07:59 55.78063 4.68559 34319 ft 469 kts 192°
2026-04-24 07:59 55.71600 4.66948 34324 ft 469 kts 192°
2026-04-24 08:00 55.65140 4.65343 34313 ft 468 kts 192°
2026-04-24 08:00 55.58708 4.63752 34319 ft 466 kts 192°
2026-04-24 08:01 55.52291 4.62168 34316 ft 465 kts 192°
2026-04-24 08:01 55.45893 4.60594 34314 ft 464 kts 192°
2026-04-24 08:02 55.39506 4.59027 34316 ft 463 kts 191°
2026-04-24 08:02 55.33132 4.57469 34316 ft 462 kts 191°
2026-04-24 08:03 55.26765 4.55918 34301 ft 462 kts 191°
2026-04-24 08:03 55.20445 4.54383 34316 ft 462 kts 191°
2026-04-24 08:04 55.14082 4.52842 34314 ft 461 kts 191°
2026-04-24 08:04 55.07730 4.51310 34310 ft 461 kts 191°
2026-04-24 08:05 55.01384 4.49784 34316 ft 460 kts 191°
2026-04-24 08:05 54.95045 4.48265 34314 ft 460 kts 191°
2026-04-24 08:06 54.88710 4.46750 34316 ft 459 kts 191°
2026-04-24 08:06 54.82391 4.45245 34316 ft 458 kts 191°
2026-04-24 08:07 54.76083 4.43747 34321 ft 457 kts 191°
2026-04-24 08:07 54.69789 4.42256 34319 ft 456 kts 191°
2026-04-24 08:08 54.63510 4.40687 34321 ft 454 kts 194°
2026-04-24 08:09 54.54651 4.35333 34324 ft 448 kts 209°
2026-04-24 08:09 54.49187 4.30323 34329 ft 448 kts 210°
2026-04-24 08:10 54.43652 4.25243 34342 ft 448 kts 209°
2026-04-24 08:10 54.38144 4.20243 34340 ft 448 kts 208°
2026-04-24 08:11 54.32632 4.15273 34341 ft 447 kts 208°
2026-04-24 08:11 54.27124 4.10325 34341 ft 447 kts 208°
2026-04-24 08:12 54.21619 4.05394 34339 ft 447 kts 208°
2026-04-24 08:12 54.16153 4.00510 34359 ft 446 kts 208°
2026-04-24 08:13 54.10656 3.95614 34350 ft 445 kts 208°
2026-04-24 08:13 54.05171 3.90742 34353 ft 444 kts 208°
2026-04-24 08:14 53.99690 3.85888 34353 ft 444 kts 208°
2026-04-24 08:14 53.94213 3.81056 34358 ft 443 kts 208°
2026-04-24 08:15 53.88740 3.76239 34362 ft 443 kts 207°
2026-04-24 08:15 53.83277 3.71443 34363 ft 442 kts 207°
2026-04-24 08:16 53.77813 3.66659 34363 ft 442 kts 207°
2026-04-24 08:16 53.72358 3.61898 34376 ft 442 kts 207°
2026-04-24 08:17 53.66898 3.57145 34366 ft 441 kts 207°
2026-04-24 08:17 53.61452 3.52418 34371 ft 440 kts 207°
2026-04-24 08:18 53.56011 3.47710 34368 ft 439 kts 207°
2026-04-24 08:18 53.50582 3.43025 34369 ft 438 kts 207°
2026-04-24 08:19 53.45154 3.38353 34370 ft 438 kts 207°
2026-04-24 08:19 53.39727 3.33698 34367 ft 438 kts 207°
2026-04-24 08:20 53.34289 3.29076 34367 ft 438 kts 206°
2026-04-24 08:20 53.28846 3.24467 34351 ft 439 kts 206°
2026-04-24 08:21 53.23399 3.19864 34351 ft 439 kts 206°
2026-04-24 08:21 53.17959 3.15252 34351 ft 439 kts 206°
2026-04-24 08:22 53.12515 3.10646 34349 ft 439 kts 206°
2026-04-24 08:22 53.07072 3.06075 34353 ft 438 kts 206°
2026-04-24 08:23 53.01627 3.01518 34382 ft 438 kts 206°
2026-04-24 08:23 52.96227 2.96849 34366 ft 437 kts 210°
2026-04-24 08:24 52.91288 2.90962 34371 ft 439 kts 219°
2026-04-24 08:24 52.86790 2.84146 34378 ft 438 kts 220°
2026-04-24 08:25 52.82288 2.77332 34050 ft 442 kts 220°
2026-04-24 08:25 52.80000 2.73892 33427 ft 444 kts 220°
2026-04-24 08:25 52.77731 2.70489 32916 ft 438 kts 220°
2026-04-24 08:25 52.75486 2.67129 32359 ft 433 kts 220°
2026-04-24 08:26 52.73266 2.63812 31806 ft 429 kts 220°
2026-04-24 08:26 52.71090 2.60481 31271 ft 426 kts 224°
2026-04-24 08:26 52.69153 2.56771 30796 ft 428 kts 230°
2026-04-24 08:26 52.67412 2.52790 30459 ft 427 kts 233°
2026-04-24 08:27 52.65883 2.48602 29920 ft 426 kts 238°
2026-04-24 08:27 52.64487 2.44330 29373 ft 421 kts 238°
2026-04-24 08:27 52.63111 2.40103 28839 ft 417 kts 239°
2026-04-24 08:27 52.61747 2.35920 28318 ft 413 kts 239°
2026-04-24 08:28 52.60391 2.31782 27791 ft 409 kts 239°
2026-04-24 08:28 52.59042 2.27683 27283 ft 406 kts 239°
2026-04-24 08:28 52.57697 2.23614 26775 ft 403 kts 239°
2026-04-24 08:28 52.56360 2.19578 26288 ft 401 kts 239°
2026-04-24 08:29 52.55028 2.15572 25799 ft 399 kts 239°
2026-04-24 08:29 52.53700 2.11584 25315 ft 397 kts 239°
2026-04-24 08:29 52.52377 2.07616 24821 ft 396 kts 239°
2026-04-24 08:29 52.51072 2.03713 24367 ft 395 kts 240°
2026-04-24 08:30 52.49754 1.99771 23863 ft 394 kts 240°
2026-04-24 08:30 52.48435 1.95837 23317 ft 393 kts 240°
2026-04-24 08:30 52.47120 1.91916 22813 ft 391 kts 240°
2026-04-24 08:30 52.45811 1.88020 22330 ft 389 kts 240°
2026-04-24 08:31 52.44507 1.84149 21851 ft 387 kts 240°
2026-04-24 08:31 52.43207 1.80295 21390 ft 385 kts 239°
2026-04-24 08:31 52.41915 1.76468 20923 ft 383 kts 240°
2026-04-24 08:31 52.40607 1.72602 20507 ft 381 kts 240°
2026-04-24 08:32 52.39344 1.68871 20401 ft 381 kts 240°
2026-04-24 08:32 52.38041 1.65032 20405 ft 391 kts 239°
2026-04-24 08:32 52.36717 1.61137 20250 ft 389 kts 240°
2026-04-24 08:32 52.35398 1.57265 19737 ft 391 kts 240°
2026-04-24 08:33 52.34076 1.53384 19228 ft 390 kts 240°
2026-04-24 08:33 52.32755 1.49517 18786 ft 388 kts 240°
2026-04-24 08:33 52.31446 1.45686 18454 ft 384 kts 240°
2026-04-24 08:33 52.30134 1.41853 18382 ft 387 kts 240°
2026-04-24 08:34 52.28842 1.38085 18366 ft 372 kts 240°
2026-04-24 08:34 52.27599 1.34463 18357 ft 358 kts 240°
2026-04-24 08:34 52.26386 1.30938 18369 ft 354 kts 239°
2026-04-24 08:34 52.25185 1.27449 18367 ft 352 kts 240°
2026-04-24 08:35 52.23990 1.23984 18368 ft 347 kts 239°
2026-04-24 08:35 52.22922 1.20514 18189 ft 340 kts 247°
2026-04-24 08:35 52.22111 1.16922 17937 ft 335 kts 250°
2026-04-24 08:35 52.21375 1.13336 17479 ft 331 kts 251°
2026-04-24 08:36 52.20663 1.09789 16778 ft 329 kts 251°
2026-04-24 08:36 52.19952 1.06240 16033 ft 329 kts 251°
2026-04-24 08:36 52.19238 1.02703 15398 ft 327 kts 251°
2026-04-24 08:36 52.18521 0.99200 14801 ft 324 kts 251°
2026-04-24 08:37 52.17807 0.95732 14165 ft 322 kts 251°
2026-04-24 08:37 52.17095 0.92277 13476 ft 321 kts 251°
2026-04-24 08:37 52.16378 0.88831 12820 ft 322 kts 251°
2026-04-24 08:37 52.15659 0.85406 12581 ft 319 kts 251°
2026-04-24 08:38 52.14934 0.81976 12414 ft 321 kts 251°
2026-04-24 08:38 52.14206 0.78545 12397 ft 320 kts 251°
2026-04-24 08:38 52.13476 0.75116 12393 ft 322 kts 251°
2026-04-24 08:38 52.12736 0.71653 12399 ft 325 kts 251°
2026-04-24 08:39 52.11992 0.68172 12184 ft 326 kts 251°
2026-04-24 08:39 52.11251 0.64706 11903 ft 323 kts 251°
2026-04-24 08:39 52.10513 0.61267 11483 ft 321 kts 251°
2026-04-24 08:39 52.09793 0.57936 11115 ft 310 kts 251°
2026-04-24 08:40 52.09077 0.54641 10691 ft 301 kts 251°
2026-04-24 08:40 52.08385 0.51473 10246 ft 294 kts 251°
2026-04-24 08:40 52.07708 0.48390 9770 ft 286 kts 251°
2026-04-24 08:40 52.07051 0.45359 9448 ft 287 kts 251°
2026-04-24 08:41 52.06387 0.42269 9422 ft 292 kts 251°
2026-04-24 08:41 52.05730 0.39202 9387 ft 289 kts 251°
2026-04-24 08:41 52.05076 0.36150 9383 ft 284 kts 251°
2026-04-24 08:41 52.04431 0.33138 9387 ft 282 kts 251°
2026-04-24 08:42 52.03785 0.30110 9402 ft 285 kts 251°
2026-04-24 08:42 52.03006 0.27180 9193 ft 282 kts 234°
2026-04-24 08:42 52.01754 0.24766 8966 ft 277 kts 226°
2026-04-24 08:42 52.00449 0.22470 8504 ft 279 kts 226°
2026-04-24 08:43 51.99099 0.20099 7852 ft 289 kts 226°
2026-04-24 08:43 51.97750 0.17731 7620 ft 281 kts 226°
2026-04-24 08:43 51.96442 0.15433 7426 ft 273 kts 226°
2026-04-24 08:43 51.95179 0.13210 7370 ft 262 kts 226°
2026-04-24 08:44 51.94363 0.11770 7354 ft 251 kts 226°
2026-04-24 08:44 51.93227 0.09761 7345 ft 232 kts 226°
2026-04-24 08:44 51.92179 0.07903 7347 ft 218 kts 226°
2026-04-24 08:44 51.91165 0.06098 7080 ft 215 kts 226°
2026-04-24 08:45 51.90163 0.04314 6646 ft 214 kts 226°
2026-04-24 08:45 51.89162 0.02526 6153 ft 214 kts 226°
2026-04-24 08:45 51.88167 0.00747 5749 ft 211 kts 226°
2026-04-24 08:45 51.87224 -0.00949 5478 ft 202 kts 226°
2026-04-24 08:46 51.86304 -0.02613 5203 ft 195 kts 226°
2026-04-24 08:46 51.85370 -0.04159 5047 ft 190 kts 210°
2026-04-24 08:46 51.84131 -0.04762 5056 ft 188 kts 180°
2026-04-24 08:46 51.82794 -0.04893 5010 ft 196 kts 181°
2026-04-24 08:47 51.81420 -0.05047 4739 ft 199 kts 181°
2026-04-24 08:47 51.80050 -0.05206 4427 ft 195 kts 181°
2026-04-24 08:47 51.78722 -0.05375 4107 ft 187 kts 181°
2026-04-24 08:47 51.77472 -0.05545 4047 ft 179 kts 181°
2026-04-24 08:48 51.76206 -0.05610 4028 ft 184 kts 165°
2026-04-24 08:48 51.75111 -0.04629 3922 ft 184 kts 127°
2026-04-24 08:48 51.74649 -0.02740 3583 ft 184 kts 94°
2026-04-24 08:48 51.74635 -0.00702 3246 ft 180 kts 90°
2026-04-24 08:49 51.74618 0.01274 3004 ft 171 kts 91°
2026-04-24 08:49 51.74612 0.03194 3034 ft 171 kts 82°
2026-04-24 08:49 51.75189 0.04863 2988 ft 181 kts 41°
2026-04-24 08:49 51.76263 0.05946 2960 ft 181 kts 37°
2026-04-24 08:50 51.77286 0.07127 2923 ft 180 kts 39°
2026-04-24 08:50 51.78280 0.08288 2774 ft 172 kts 39°
2026-04-24 08:50 51.79214 0.09381 2615 ft 160 kts 41°
2026-04-24 08:50 51.80085 0.10493 2491 ft 159 kts 43°
2026-04-24 08:51 51.80892 0.11665 2333 ft 154 kts 47°
2026-04-24 08:51 51.81647 0.12901 2206 ft 154 kts 49°
2026-04-24 08:51 51.82380 0.14118 2040 ft 148 kts 47°
2026-04-24 08:51 51.83116 0.15251 1794 ft 144 kts 46°
2026-04-24 08:52 51.83822 0.16385 1496 ft 143 kts 47°
2026-04-24 08:52 51.84539 0.17494 1174 ft 141 kts 44°
2026-04-24 08:52 51.85253 0.18572 958 ft 142 kts 42°
2026-04-24 08:52 51.85982 0.19686 783 ft 146 kts 43°
2026-04-24 08:53 51.86715 0.20811 623 ft 144 kts 41°
2026-04-24 08:53 51.87450 0.21903 415 ft 142 kts 42°
2026-04-24 08:53 51.88164 0.22975 335 ft 132 kts 41°
2026-04-24 08:53 51.88727 0.23819 336 ft 84 kts 43°
2026-04-24 08:54 51.88972 0.24187 353 ft 31 kts 44°
2026-04-24 08:54 51.89080 0.24449 352 ft 22 kts 68°
2026-04-24 08:54 51.89135 0.24669 350 ft 18 kts 68°
2026-04-24 08:54 51.89169 0.24815 350 ft 11 kts 79°
2026-04-24 08:55 51.89170 0.24834 348 ft 0 kts 91°
2026-04-24 08:55 51.89170 0.24836 348 ft 1 kts 94°
2026-04-24 08:55 51.89169 0.24842 347 ft 1 kts 96°
2026-04-24 08:55 51.89167 0.24856 347 ft 4 kts 106°
2026-04-24 08:56 51.89127 0.24893 355 ft 8 kts 186°
2026-04-24 08:56 51.89079 0.24838 356 ft 9 kts 220°
2026-04-24 08:56 51.89023 0.24838 357 ft 9 kts 142°
2026-04-24 08:56 51.88988 0.24906 357 ft 7 kts 118°
2026-04-24 08:57 51.88972 0.24988 356 ft 8 kts 107°
2026-04-24 08:57 51.88945 0.25066 352 ft 6 kts 131°
2026-04-24 08:57 51.88950 0.25143 354 ft 7 kts 49°
2026-04-24 08:57 51.88960 0.25157 354 ft 3 kts 43°
2026-04-24 08:58 51.88966 0.25167 354 ft 0 kts 43°